Regional Weather Roundup
Issued by NWS

Home | Current Version | Previous Version | Graphics & Text | Print | Product List | Glossary On
Versions: 1 2 3 4 5 6 7 8 9 10 11 12 13 14 15 16 17 18 19 20 21 22 23 24 25 26 27 28 29 30 31 32 33 34 35 36 37 38 39 40 41 42 43 44 45 46 47 48 49 50
865
ASUS45 KSLC 280110
RWRUT

UTAH REGIONAL WEATHER ROUNDUP
NATIONAL WEATHER SERVICE SALT LAKE CITY UT
700 PM MDT TUE JUN 27 2017

UTZ001>011-023>025-280200-

NORTHERN UTAH

CITY           SKY/WX    TMP DP  RH WIND       PRES   REMARKS
HILL AFB       SUNNY     84  33  15 SW7       29.91F
LOGAN          SUNNY     84  39  20 N14       29.88F
OGDEN          SUNNY     85  33  15 VRB5      29.88F
SALT LAKE CITY SUNNY     89  30  12 NE13      29.87F
TOOELE VALLEY  SUNNY     86  36  16 N13       29.88F
WENDOVER         N/A     91  26   9 W16       29.84
WEST JORDAN    SUNNY     85  49  28 N7        29.90F

$$

UTZ011>015-024>027-280200-

CENTRAL/NORTHEAST UTAH

CITY           SKY/WX    TMP DP  RH WIND       PRES   REMARKS
PROVO AIRPORT  SUNNY     87  34  15 N13       29.88F
MOAB/CANYONLAN SUNNY     96  10   4 SW13      29.75F
PRICE          SUNNY     87  31  13 NW13G23   29.93F
VERNAL         MOSUNNY   89  32  13 W22G31    29.86F

$$

UTZ013>016-019>022-027-280200-

SOUTHERN UTAH

CITY           SKY/WX    TMP DP  RH WIND       PRES   REMARKS
BRYCE CANYON   CLOUDY    79  16   9 W14       30.11F HAZE
CEDAR CITY     SUNNY     89  18   7 SW14G23   29.95F
MILFORD        MOSUNNY   95  20   6 SW15G35   29.83F
ST GEORGE      CLEAR    101  24   6 SW13G21   29.75F HX  94

$$

REGIONAL REPORTS     COLORADO/ARIZONA

CITY           SKY/WX    TMP DP  RH WIND       PRES   REMARKS
CRAIG, CO      PTSUNNY   81  28  14 NW14G20   29.93S
GRAND JUNCTION SUNNY     94  20   7 W13       29.80F
RIFLE, CO      MOSUNNY   91   8   4 SW18G25   29.85F
MONTROSE, CO   SUNNY     90  19   7 W12       29.91F
CORTEZ, CO     SUNNY     89   8   5 W10       29.96F
PAGE, AZ       SUNNY     98  11   4 W13G22    29.81F HX  91
GRAND CANYON   SUNNY     85   7   5 W14G20    30.09S
KINGMAN, AZ    SUNNY     99  20   6 W12       29.85F HX  92
FLAGSTAFF, AZ  SUNNY     80  -2   4 SW17G25   30.14F

$$

REGIONAL REPORTS    NEVADA/IDAHO/WYOMING

CITY           SKY/WX    TMP DP  RH WIND       PRES   REMARKS
LAS VEGAS, NV  SUNNY    106  -4   2 W18       29.69F HX  96
ELY, NY        SUNNY     87  32  14 N7        29.98F
ELKO, NV       SUNNY     86  12   6 W14       29.94F
POCATELLO, ID  MOSUNNY   80  40  23 SW21G29   29.90S
BURLEY, ID     SUNNY     80  43  26 W9G18     29.87F
EVANSTON, WY   SUNNY     74  30  19 W20       30.07F
ROCK SPRINGS,  SUNNY     74  31  20 W18G33    30.00R

$$




USA.gov is the U.S. government's official web portal to all federal, state and local government web resources and services.